Howell, MI

12:58 PM EDT on May 26, 2018 (GMT -0400)
Livingston County

Weather History for KOZW - March, 2014

Change the Weather History Date:

Saturday, March 1, 2014

  Actual Average Record
Temperature  
Mean Temperature 19 °F -  
Max Temperature 24 °F 36 °F 60 °F (1997)
Min Temperature 14 °F 21 °F 9 °F (2015)
Degree Days  
Heating Degree Days 46    
Moisture  
Dew Point 14 °F    
Average Humidity 81    
Maximum Humidity 93    
Minimum Humidity 66    
Precipitation  
Precipitation 0.00 in - - ()
Sea Level Pressure  
Sea Level Pressure 30.10 in    
Wind  
Wind Speed 6 mph (WNW)    
Max Wind Speed 9 mph    
Max Gust Speed -    
Visibility 6 miles    
Events Snow    
Averages and records for this station are not official NWS values.
T = Trace of Precipitation, MM = Missing Value Source: NWS Daily Summary

Daily Weather History Graph

Daily Weather History Graph

Search for Another Location

Airport or City:

Astronomy

Mar. 01, 2014 Rise Set
Actual Time 7:11 AM EST 6:25 PM EST
Civil Twilight 6:43 AM EST 6:53 PM EST
Nautical Twilight 6:10 AM EST 7:26 PM EST
Astronomical Twilight 5:37 AM EST 7:59 PM EST
Moon 7:03 AM EST (3/1) 7:13 PM EST (3/1)
Length of Visible Light 12h 10m
Length of Day
11h 14m
New Moon, 0% of the Moon is Illuminated
Mar 1
New Moon
Mar 8
First Quarter
Mar 16
Full
Mar 23
Last Quarter
Mar 30
New

Hourly Weather History & Observations

Time (EST) Temp. Windchill Dew Point Humidity Pressure Visibility Wind Dir Wind Speed Gust Speed Precip Events Conditions
12:15 AM 15.4 °F 3.8 °F 7.5 °F 71% 30.04 in 10.0 mi SE 9.2 mph - N/A   Clear
12:35 AM 15.3 °F 5.4 °F 7.5 °F 71% 30.03 in 10.0 mi SE 6.9 mph - N/A   Clear
12:55 AM 14.7 °F 4.8 °F 7.5 °F 73% 30.03 in 10.0 mi SSE 6.9 mph - N/A   Clear
1:15 AM 14.9 °F 7.5 °F 7.7 °F 73% 30.03 in 10.0 mi SSE 4.6 mph - N/A   Clear
1:35 AM 14.9 °F 6.1 °F 8.2 °F 75% 30.03 in 10.0 mi South 5.8 mph - N/A   Clear
1:55 AM 14.9 °F 6.1 °F 8.1 °F 74% 30.03 in 10.0 mi SSE 5.8 mph - N/A   Clear
2:15 AM 14.9 °F 5.0 °F 8.6 °F 76% 30.02 in 10.0 mi SSE 6.9 mph - N/A   Scattered Clouds
2:35 AM 15.4 °F 6.8 °F 9.0 °F 76% 30.02 in 10.0 mi SSE 5.8 mph - N/A   Mostly Cloudy
2:55 AM 15.8 °F 6.1 °F 9.5 °F 76% 30.01 in 10.0 mi SSE 6.9 mph - N/A   Overcast
3:15 AM 16.3 °F 7.8 °F 9.5 °F 74% 30.01 in 10.0 mi SSE 5.8 mph - N/A   Overcast
3:35 AM 16.5 °F 9.4 °F 10.0 °F 76% 30.01 in 10.0 mi SSE 4.6 mph - N/A   Overcast
3:55 AM 16.9 °F 11.5 °F 10.2 °F 75% 30.01 in 10.0 mi South 3.5 mph - N/A   Overcast
4:15 AM 18.5 °F 9.3 °F 10.0 °F 70% 30.01 in 10.0 mi South 6.9 mph - N/A   Mostly Cloudy
4:35 AM 19.2 °F 10.2 °F 10.2 °F 68% 30.01 in 10.0 mi South 6.9 mph - N/A   Mostly Cloudy
4:55 AM 19.0 °F 11.1 °F 9.9 °F 67% 30.02 in 10.0 mi SSW 5.8 mph - N/A   Scattered Clouds
5:15 AM 18.7 °F 11.9 °F 10.0 °F 69% 30.01 in 10.0 mi SSW 4.6 mph - N/A   Mostly Cloudy
5:34 AM 19.0 °F 12.3 °F 10.2 °F 69% 30.02 in 10.0 mi SSW 4.6 mph - N/A   Mostly Cloudy
5:55 AM 19.2 °F 14.1 °F 10.6 °F 69% 30.02 in 10.0 mi SSW 3.5 mph - N/A   Scattered Clouds
6:15 AM 19.6 °F 13.0 °F 10.9 °F 69% 30.02 in 10.0 mi SSW 4.6 mph - N/A   Mostly Cloudy
6:34 AM 20.3 °F 13.8 °F 10.8 °F 67% 30.03 in 10.0 mi SSW 4.6 mph - N/A   Overcast
6:55 AM 20.7 °F - 10.9 °F 66% 30.03 in 10.0 mi Calm Calm - N/A   Overcast
7:15 AM 21.2 °F - 12.4 °F 69% 30.03 in 4.0 mi Calm Calm - N/A Snow Light Snow
7:35 AM 21.2 °F - 14.4 °F 75% 30.04 in 2.5 mi Calm Calm - N/A Snow Light Snow
7:55 AM 20.8 °F 16.0 °F 14.7 °F 77% 30.04 in 1.5 mi SW 3.5 mph - N/A Snow Light Snow
8:15 AM 20.8 °F 16.0 °F 17.1 °F 85% 30.05 in 1.0 mi WSW 3.5 mph - N/A Snow Light Snow
8:35 AM 21.4 °F 16.6 °F 17.6 °F 85% 30.05 in 1.0 mi WSW 3.5 mph - N/A Snow Light Snow
8:55 AM 21.7 °F 15.5 °F 18.7 °F 88% 30.05 in 0.8 mi WSW 4.6 mph - N/A Snow Light Snow
9:15 AM 22.3 °F 16.1 °F 19.4 °F 89% 30.05 in 3.0 mi SW 4.6 mph - N/A Snow Light Snow
9:35 AM 23.2 °F 16.0 °F 20.3 °F 89% 30.06 in 7.0 mi WSW 5.8 mph - N/A Snow Light Snow
9:55 AM 24.4 °F 16.5 °F 20.8 °F 86% 30.06 in 10.0 mi West 6.9 mph - N/A   Overcast
10:15 AM 24.1 °F 16.0 °F 20.7 °F 87% 30.07 in 7.0 mi West 6.9 mph - N/A   Overcast
10:35 AM 23.9 °F 15.0 °F 20.7 °F 87% 30.09 in 7.0 mi WNW 8.1 mph - N/A   Overcast
10:55 AM 23.2 °F 13.3 °F 19.8 °F 87% 30.09 in 7.0 mi WNW 9.2 mph - N/A   Overcast
11:15 AM 23.0 °F 13.9 °F 19.6 °F 87% 30.09 in 7.0 mi NW 8.1 mph - N/A   Overcast
11:35 AM 23.0 °F 13.9 °F 19.4 °F 86% 30.10 in 7.0 mi NW 8.1 mph - N/A   Overcast
11:55 AM 22.8 °F 15.5 °F 18.5 °F 83% 30.09 in 7.0 mi NW 5.8 mph - N/A   Overcast
12:15 PM 23.0 °F 13.1 °F 18.5 °F 83% 30.10 in 10.0 mi NW 9.2 mph - N/A   Overcast
12:35 PM 22.8 °F 14.5 °F 17.8 °F 81% 30.10 in 10.0 mi NW 6.9 mph - N/A   Overcast
12:55 PM 23.0 °F 15.8 °F 17.6 °F 80% 30.09 in 10.0 mi NW 5.8 mph - N/A   Overcast
1:14 PM 22.8 °F 12.9 °F 17.6 °F 80% 30.10 in 10.0 mi WNW 9.2 mph - N/A   Overcast
1:35 PM 22.6 °F 15.3 °F 17.6 °F 81% 30.09 in 10.0 mi NW 5.8 mph - N/A   Overcast
1:55 PM 22.5 °F 14.1 °F 16.7 °F 79% 30.09 in 10.0 mi NW 6.9 mph - N/A   Overcast
2:14 PM 22.6 °F 13.4 °F 16.5 °F 77% 30.09 in 10.0 mi NW 8.1 mph - N/A   Overcast
2:35 PM 22.6 °F 13.4 °F 16.0 °F 76% 30.10 in 10.0 mi NW 8.1 mph - N/A   Overcast
2:55 PM 22.6 °F 13.4 °F 15.8 °F 75% 30.11 in 10.0 mi NW 8.1 mph - N/A   Overcast
3:14 PM 22.8 °F 13.6 °F 15.8 °F 74% 30.10 in 10.0 mi NW 8.1 mph - N/A   Overcast
3:35 PM 22.8 °F 16.7 °F 15.8 °F 74% 30.11 in 10.0 mi NW 4.6 mph - N/A   Overcast
3:55 PM 22.8 °F 15.5 °F 16.0 °F 75% 30.12 in 4.0 mi NW 5.8 mph - N/A Snow Light Snow
4:15 PM 22.5 °F 16.3 °F 16.5 °F 78% 30.12 in 2.0 mi NNW 4.6 mph - N/A Snow Light Snow
4:35 PM 22.1 °F 13.7 °F 16.3 °F 79% 30.13 in 3.0 mi NNW 6.9 mph - N/A Snow Light Snow
4:55 PM 21.6 °F 11.3 °F 15.6 °F 78% 30.13 in 3.0 mi NNW 9.2 mph - N/A Snow Light Snow
5:15 PM 20.8 °F 13.2 °F 15.8 °F 81% 30.13 in 1.5 mi NNW 5.8 mph - N/A Snow Light Snow
5:35 PM 20.5 °F 12.8 °F 16.5 °F 85% 30.14 in 1.2 mi North 5.8 mph - N/A Snow Light Snow
5:55 PM 19.9 °F 12.1 °F 16.5 °F 87% 30.16 in 1.2 mi North 5.8 mph - N/A Snow Light Snow
6:15 PM 19.2 °F 10.2 °F 15.8 °F 87% 30.17 in 1.0 mi NNW 6.9 mph - N/A Snow Light Snow
6:35 PM 18.9 °F 12.1 °F 15.6 °F 87% 30.17 in 1.5 mi North 4.6 mph - N/A Snow Light Snow
6:55 PM 18.0 °F 11.1 °F 15.1 °F 88% 30.18 in 1.2 mi North 4.6 mph - N/A Snow Light Snow
7:15 PM 17.6 °F 12.3 °F 14.9 °F 89% 30.19 in 2.5 mi North 3.5 mph - N/A Snow Light Snow
7:35 PM 17.6 °F 12.3 °F 14.9 °F 89% 30.20 in 1.5 mi North 3.5 mph - N/A Snow Light Snow
7:55 PM 17.2 °F 11.9 °F 14.5 °F 89% 30.20 in 1.0 mi North 3.5 mph - N/A Snow Snow
8:15 PM 17.2 °F - 14.9 °F 91% 30.19 in 1.2 mi Calm Calm - N/A Snow Light Snow
8:35 PM 16.9 °F - 14.9 °F 92% 30.19 in 1.5 mi Calm Calm - N/A Snow Light Snow
8:55 PM 17.1 °F 11.7 °F 15.1 °F 92% 30.20 in 2.0 mi NNW 3.5 mph - N/A Snow Light Snow
9:15 PM 16.7 °F - 14.7 °F 92% 30.20 in 1.8 mi Calm Calm - N/A Snow Light Snow
9:35 PM 16.7 °F 11.2 °F 14.5 °F 91% 30.21 in 1.2 mi North 3.5 mph - N/A Snow Light Snow
9:55 PM 16.3 °F - 14.5 °F 93% 30.21 in 1.0 mi Calm Calm - N/A Snow Snow
10:15 PM 16.3 °F 9.2 °F 14.2 °F 91% 30.22 in 1.0 mi North 4.6 mph - N/A Snow Snow
10:35 PM 16.2 °F 10.6 °F 14.0 °F 91% 30.22 in 1.0 mi North 3.5 mph - N/A Snow Snow
10:55 PM 16.2 °F 7.6 °F 14.2 °F 92% 30.22 in 1.2 mi NNW 5.8 mph - N/A Snow Light Snow
11:15 PM 15.4 °F 5.6 °F 13.1 °F 90% 30.23 in 1.5 mi NNW 6.9 mph - N/A Snow Light Snow
11:35 PM 14.4 °F 3.3 °F 12.0 °F 90% 30.23 in 1.5 mi North 8.1 mph - N/A Snow Light Snow
11:55 PM 14.0 °F 5.1 °F 11.7 °F 90% 30.23 in 1.8 mi North 5.8 mph - N/A Snow Light Snow